Location: Palomar Mountain Lodge
(33.3110°N, 116.8495°W)
Time: 06:40:05
(UTC-07:00)

Cosmos 1602 Rocket - Pass Details

Date: 14 June 2018
Orbit: 604 x 633 km, 82.5° (Epoch: 24 June)

Event Time Altitude Azimuth Distance (km) Brightness Sun altitude
Exits shadow 21:46:12 - 204° (SSW) 2,040 6.0 -18.8°
Reaches altitude 10° 21:46:19 10° 204° (SSW) 1,991 5.9 -18.8°
Maximum altitude 21:50:35 47° 279° (W) 829 4.5 -19.4°
Drops below altitude 10° 21:54:54 10° 354° (N) 2,014 6.9 -20.0°
Sets 21:57:13 0° 360° (N) 2,927 7.8 -20.3°
